Time,TemperatureF,DewpointF,PressureIn,WindDirection,WindDirectionDegrees,WindSpeedMPH,WindSpeedGustMPH,Humidity,HourlyPrecipIn,Conditions,Clouds,dailyrainin,SoftwareType,DateUTC
2013-04-15 00:00:00,45.0,33.0,30.21,NNE,21,0.0,4.0,62,-99.99,,,-99.99,,2013-04-15 04:00:00,
2013-04-15 00:23:00,45.0,33.0,30.21,NNE,21,0.0,4.0,62,-99.99,,,-99.99,,2013-04-15 04:23:00,
2013-04-15 00:33:00,45.0,33.0,30.21,NNE,21,0.0,4.0,62,-99.99,,,-99.99,,2013-04-15 04:33:00,
2013-04-15 00:43:00,45.0,33.0,30.21,NNE,21,0.0,4.0,62,-99.99,,,-99.99,,2013-04-15 04:43:00,
2013-04-15 00:53:00,45.0,33.0,30.21,NNE,21,0.0,4.0,62,-99.99,,,-99.99,,2013-04-15 04:53:00,
2013-04-15 01:00:00,46.0,26.0,30.24,ENE,64,6.0,8.0,45,-99.99,,,-99.99,,2013-04-15 05:00:00,
2013-04-15 01:23:00,46.0,26.0,30.24,ENE,64,6.0,8.0,45,-99.99,,,-99.99,,2013-04-15 05:23:00,
2013-04-15 01:33:00,46.0,26.0,30.24,ENE,64,6.0,8.0,45,-99.99,,,-99.99,,2013-04-15 05:33:00,
2013-04-15 01:43:00,46.0,26.0,30.24,ENE,64,6.0,8.0,45,-99.99,,,-99.99,,2013-04-15 05:43:00,
2013-04-15 01:53:00,46.0,26.0,30.24,ENE,64,6.0,8.0,45,-99.99,,,-99.99,,2013-04-15 05:53:00,
2013-04-15 02:00:00,44.0,24.0,30.24,NE,43,3.0,11.0,46,-99.99,,,-99.99,,2013-04-15 06:00:00,
2013-04-15 02:34:00,44.0,24.0,30.24,NE,43,3.0,11.0,46,-99.99,,,-99.99,,2013-04-15 06:34:00,
2013-04-15 02:43:00,44.0,24.0,30.24,NE,43,3.0,11.0,46,-99.99,,,-99.99,,2013-04-15 06:43:00,
2013-04-15 02:53:00,44.0,24.0,30.24,NE,43,3.0,11.0,46,-99.99,,,-99.99,,2013-04-15 06:53:00,
2013-04-15 03:00:00,42.0,26.0,30.24,NW,318,0.0,7.0,53,-99.99,,,-99.99,,2013-04-15 07:00:00,
2013-04-15 03:42:00,42.0,26.0,30.24,NW,318,0.0,7.0,53,-99.99,,,-99.99,,2013-04-15 07:42:00,
2013-04-15 03:43:00,42.0,26.0,30.24,NW,318,0.0,7.0,53,-99.99,,,-99.99,,2013-04-15 07:43:00,
2013-04-15 03:54:00,42.0,26.0,30.24,NW,318,0.0,7.0,53,-99.99,,,-99.99,,2013-04-15 07:54:00,
2013-04-15 04:00:00,38.0,30.0,30.27,ENE,78,0.0,5.0,72,-99.99,,,-99.99,,2013-04-15 08:00:00,
2013-04-15 04:23:00,38.0,30.0,30.27,ENE,78,0.0,5.0,72,-99.99,,,-99.99,,2013-04-15 08:23:00,
2013-04-15 04:34:00,38.0,30.0,30.27,ENE,78,0.0,5.0,72,-99.99,,,-99.99,,2013-04-15 08:34:00,
2013-04-15 04:43:00,38.0,30.0,30.27,ENE,78,0.0,5.0,72,-99.99,,,-99.99,,2013-04-15 08:43:00,
2013-04-15 04:52:00,38.0,30.0,30.27,ENE,78,0.0,5.0,72,-99.99,,,-99.99,,2013-04-15 08:52:00,
2013-04-15 05:00:00,38.0,30.0,30.30,North,2,0.0,3.0,73,-99.99,,,-99.99,,2013-04-15 09:00:00,
2013-04-15 05:23:00,38.0,30.0,30.30,North,2,0.0,3.0,73,-99.99,,,-99.99,,2013-04-15 09:23:00,
2013-04-15 05:33:00,38.0,30.0,30.30,North,2,0.0,3.0,73,-99.99,,,-99.99,,2013-04-15 09:33:00,
2013-04-15 05:43:00,38.0,30.0,30.30,North,2,0.0,3.0,73,-99.99,,,-99.99,,2013-04-15 09:43:00,
2013-04-15 05:53:00,38.0,30.0,30.30,North,2,0.0,3.0,73,-99.99,,,-99.99,,2013-04-15 09:53:00,
2013-04-15 06:00:00,38.0,31.0,30.30,ENE,71,2.0,4.0,78,-99.99,,,-99.99,,2013-04-15 10:00:00,
2013-04-15 06:23:00,38.0,31.0,30.30,ENE,71,2.0,4.0,78,-99.99,,,-99.99,,2013-04-15 10:23:00,
2013-04-15 06:33:00,38.0,31.0,30.30,ENE,71,2.0,4.0,78,-99.99,,,-99.99,,2013-04-15 10:33:00,
2013-04-15 06:42:00,38.0,31.0,30.30,ENE,71,2.0,4.0,78,-99.99,,,-99.99,,2013-04-15 10:42:00,
2013-04-15 06:53:00,38.0,31.0,30.30,ENE,71,2.0,4.0,78,-99.99,,,-99.99,,2013-04-15 10:53:00,
2013-04-15 07:00:00,38.0,31.0,30.33,SSW,203,0.0,3.0,75,-99.99,,,-99.99,,2013-04-15 11:00:00,
2013-04-15 07:23:00,38.0,31.0,30.33,SSW,203,0.0,3.0,75,-99.99,,,-99.99,,2013-04-15 11:23:00,
2013-04-15 07:33:00,38.0,31.0,30.33,SSW,203,0.0,3.0,75,-99.99,,,-99.99,,2013-04-15 11:33:00,
2013-04-15 07:44:00,38.0,31.0,30.33,SSW,203,0.0,3.0,75,-99.99,,,-99.99,,2013-04-15 11:44:00,
2013-04-15 07:54:00,38.0,31.0,30.33,SSW,203,0.0,3.0,75,-99.99,,,-99.99,,2013-04-15 11:54:00,
2013-04-15 08:00:00,43.0,30.0,30.36,NNE,14,0.0,2.0,58,-99.99,,,-99.99,,2013-04-15 12:00:00,
2013-04-15 08:23:00,43.0,30.0,30.36,NNE,14,0.0,2.0,58,-99.99,,,-99.99,,2013-04-15 12:23:00,
2013-04-15 08:34:00,43.0,30.0,30.36,NNE,14,0.0,2.0,58,-99.99,,,-99.99,,2013-04-15 12:34:00,
2013-04-15 08:43:00,43.0,30.0,30.36,NNE,14,0.0,2.0,58,-99.99,,,-99.99,,2013-04-15 12:43:00,
2013-04-15 08:53:00,43.0,30.0,30.36,NNE,14,0.0,2.0,58,-99.99,,,-99.99,,2013-04-15 12:53:00,
2013-04-15 09:00:00,46.0,27.0,30.36,SE,135,5.0,8.0,47,-99.99,,,-99.99,,2013-04-15 13:00:00,
2013-04-15 09:23:00,46.0,27.0,30.36,SE,135,5.0,8.0,47,-99.99,,,-99.99,,2013-04-15 13:23:00,
2013-04-15 09:34:00,46.0,27.0,30.36,SE,135,5.0,8.0,47,-99.99,,,-99.99,,2013-04-15 13:34:00,
2013-04-15 09:43:00,46.0,27.0,30.36,SE,135,5.0,8.0,47,-99.99,,,-99.99,,2013-04-15 13:43:00,
2013-04-15 09:54:00,46.0,27.0,30.36,SE,135,5.0,8.0,47,-99.99,,,-99.99,,2013-04-15 13:54:00,
2013-04-15 10:00:00,48.0,25.0,30.33,SSE,152,5.0,10.0,40,-99.99,,,-99.99,,2013-04-15 14:00:00,
2013-04-15 10:23:00,48.0,25.0,30.33,SSE,152,5.0,10.0,40,-99.99,,,-99.99,,2013-04-15 14:23:00,
2013-04-15 10:34:00,48.0,25.0,30.33,SSE,152,5.0,10.0,40,-99.99,,,-99.99,,2013-04-15 14:34:00,
2013-04-15 10:44:00,48.0,25.0,30.33,SSE,152,5.0,10.0,40,-99.99,,,-99.99,,2013-04-15 14:44:00,
2013-04-15 10:55:00,48.0,25.0,30.33,SSE,152,5.0,10.0,40,-99.99,,,-99.99,,2013-04-15 14:55:00,
2013-04-15 11:00:00,51.0,31.0,30.33,East,100,6.0,12.0,47,-99.99,,,-99.99,,2013-04-15 15:00:00,
2013-04-15 11:25:00,51.0,31.0,30.33,East,100,6.0,12.0,47,-99.99,,,-99.99,,2013-04-15 15:25:00,
2013-04-15 11:37:00,51.0,31.0,30.33,East,100,6.0,12.0,47,-99.99,,,-99.99,,2013-04-15 15:37:00,
2013-04-15 11:45:00,51.0,31.0,30.33,East,100,6.0,12.0,47,-99.99,,,-99.99,,2013-04-15 15:45:00,
2013-04-15 11:55:00,51.0,31.0,30.33,East,100,6.0,12.0,47,-99.99,,,-99.99,,2013-04-15 15:55:00,
2013-04-15 12:00:00,53.0,30.0,30.33,SE,128,3.0,13.0,40,-99.99,,,-99.99,,2013-04-15 16:00:00,
2013-04-15 12:25:00,53.0,30.0,30.33,SE,128,3.0,13.0,40,-99.99,,,-99.99,,2013-04-15 16:25:00,
2013-04-15 12:34:00,53.0,30.0,30.33,SE,128,3.0,13.0,40,-99.99,,,-99.99,,2013-04-15 16:34:00,
2013-04-15 12:44:00,53.0,30.0,30.33,SE,128,3.0,13.0,40,-99.99,,,-99.99,,2013-04-15 16:44:00,
2013-04-15 12:54:00,53.0,30.0,30.33,SE,128,3.0,13.0,40,-99.99,,,-99.99,,2013-04-15 16:54:00,
2013-04-15 13:00:00,57.0,32.0,30.30,East,92,4.0,15.0,38,-99.99,,,-99.99,,2013-04-15 17:00:00,
2013-04-15 13:33:00,57.0,32.0,30.30,East,92,4.0,15.0,38,-99.99,,,-99.99,,2013-04-15 17:33:00,
2013-04-15 13:43:00,57.0,32.0,30.30,East,92,4.0,15.0,38,-99.99,,,-99.99,,2013-04-15 17:43:00,
2013-04-15 13:53:00,57.0,32.0,30.30,East,92,4.0,15.0,38,-99.99,,,-99.99,,2013-04-15 17:53:00,
2013-04-15 14:00:00,60.0,32.0,30.30,East,79,8.0,13.0,35,-99.99,,,-99.99,,2013-04-15 18:00:00,
2013-04-15 14:33:00,60.0,32.0,30.30,East,79,8.0,13.0,35,-99.99,,,-99.99,,2013-04-15 18:33:00,
2013-04-15 14:42:00,60.0,32.0,30.30,East,79,8.0,13.0,35,-99.99,,,-99.99,,2013-04-15 18:42:00,
2013-04-15 14:52:00,60.0,32.0,30.30,East,79,8.0,13.0,35,-99.99,,,-99.99,,2013-04-15 18:52:00,
2013-04-15 15:00:00,58.0,35.0,30.27,ESE,119,5.0,16.0,42,-99.99,,,-99.99,,2013-04-15 19:00:00,
2013-04-15 15:22:00,58.0,35.0,30.27,ESE,119,5.0,16.0,42,-99.99,,,-99.99,,2013-04-15 19:22:00,
2013-04-15 15:39:00,58.0,35.0,30.27,ESE,119,5.0,16.0,42,-99.99,,,-99.99,,2013-04-15 19:39:00,
2013-04-15 15:59:00,58.0,35.0,30.27,ESE,119,5.0,16.0,42,-99.99,,,-99.99,,2013-04-15 19:59:00,
2013-04-15 16:00:00,58.0,35.0,30.27,SE,126,4.0,12.0,42,-99.99,,,-99.99,,2013-04-15 20:00:00,
2013-04-15 16:22:00,58.0,35.0,30.27,SE,126,4.0,12.0,42,-99.99,,,-99.99,,2013-04-15 20:22:00,
2013-04-15 16:32:00,58.0,35.0,30.27,SE,126,4.0,12.0,42,-99.99,,,-99.99,,2013-04-15 20:32:00,
2013-04-15 16:42:00,58.0,35.0,30.27,SE,126,4.0,12.0,42,-99.99,,,-99.99,,2013-04-15 20:42:00,
2013-04-15 16:52:00,58.0,35.0,30.27,SE,126,4.0,12.0,42,-99.99,,,-99.99,,2013-04-15 20:52:00,
2013-04-15 17:00:00,58.0,35.0,30.27,SE,135,4.0,13.0,42,-99.99,,,-99.99,,2013-04-15 21:00:00,
2013-04-15 17:22:00,58.0,35.0,30.27,SE,135,4.0,13.0,42,-99.99,,,-99.99,,2013-04-15 21:22:00,
2013-04-15 17:33:00,58.0,35.0,30.27,SE,135,4.0,13.0,42,-99.99,,,-99.99,,2013-04-15 21:33:00,
2013-04-15 17:43:00,58.0,35.0,30.27,SE,135,4.0,13.0,42,-99.99,,,-99.99,,2013-04-15 21:43:00,
2013-04-15 17:53:00,58.0,35.0,30.27,SE,135,4.0,13.0,42,-99.99,,,-99.99,,2013-04-15 21:53:00,
2013-04-15 18:00:00,56.0,36.0,30.30,SE,140,10.0,12.0,47,-99.99,,,-99.99,,2013-04-15 22:00:00,
2013-04-15 18:33:00,56.0,36.0,30.30,SE,140,10.0,12.0,47,-99.99,,,-99.99,,2013-04-15 22:33:00,
2013-04-15 18:42:00,56.0,36.0,30.30,SE,140,10.0,12.0,47,-99.99,,,-99.99,,2013-04-15 22:42:00,
2013-04-15 18:52:00,56.0,36.0,30.30,SE,140,10.0,12.0,47,-99.99,,,-99.99,,2013-04-15 22:52:00,
2013-04-15 19:00:00,54.0,35.0,30.30,SSE,151,2.0,12.0,49,-99.99,,,-99.99,,2013-04-15 23:00:00,
2013-04-15 19:22:00,54.0,35.0,30.30,SSE,151,2.0,12.0,49,-99.99,,,-99.99,,2013-04-15 23:22:00,
2013-04-15 19:32:00,54.0,35.0,30.30,SSE,151,2.0,12.0,49,-99.99,,,-99.99,,2013-04-15 23:32:00,
2013-04-15 19:42:00,54.0,35.0,30.30,SSE,151,2.0,12.0,49,-99.99,,,-99.99,,2013-04-15 23:42:00,
2013-04-15 19:52:00,54.0,35.0,30.30,SSE,151,2.0,12.0,49,-99.99,,,-99.99,,2013-04-15 23:52:00,
2013-04-15 20:00:00,51.0,34.0,30.33,ESE,103,3.0,15.0,51,-99.99,,,-99.99,,2013-04-16 00:00:00,
2013-04-15 20:32:00,51.0,34.0,30.33,ESE,103,3.0,15.0,51,-99.99,,,-99.99,,2013-04-16 00:32:00,
2013-04-15 20:42:00,51.0,34.0,30.33,ESE,103,3.0,15.0,51,-99.99,,,-99.99,,2013-04-16 00:42:00,
2013-04-15 20:52:00,51.0,34.0,30.33,ESE,103,3.0,15.0,51,-99.99,,,-99.99,,2013-04-16 00:52:00,
2013-04-15 21:00:00,50.0,34.0,30.33,SSE,163,8.0,12.0,53,-99.99,,,-99.99,,2013-04-16 01:00:00,
2013-04-15 21:32:00,50.0,34.0,30.33,SSE,163,8.0,12.0,53,-99.99,,,-99.99,,2013-04-16 01:32:00,
2013-04-15 21:42:00,50.0,34.0,30.33,SSE,163,8.0,12.0,53,-99.99,,,-99.99,,2013-04-16 01:42:00,
2013-04-15 21:52:00,50.0,34.0,30.33,SSE,163,8.0,12.0,53,-99.99,,,-99.99,,2013-04-16 01:52:00,
2013-04-15 22:00:00,47.0,34.0,30.36,SW,219,4.0,11.0,60,-99.99,,,-99.99,,2013-04-16 02:00:00,
2013-04-15 22:22:00,47.0,34.0,30.36,SW,219,4.0,11.0,60,-99.99,,,-99.99,,2013-04-16 02:22:00,
2013-04-15 22:32:00,47.0,34.0,30.36,SW,219,4.0,11.0,60,-99.99,,,-99.99,,2013-04-16 02:32:00,
2013-04-15 22:42:00,47.0,34.0,30.36,SW,219,4.0,11.0,60,-99.99,,,-99.99,,2013-04-16 02:42:00,
2013-04-15 22:52:00,47.0,34.0,30.36,SW,219,4.0,11.0,60,-99.99,,,-99.99,,2013-04-16 02:52:00,
2013-04-15 23:00:00,46.0,33.0,30.36,WSW,238,0.0,8.0,59,-99.99,,,-99.99,,2013-04-16 03:00:00,
2013-04-15 23:22:00,46.0,33.0,30.36,WSW,238,0.0,8.0,59,-99.99,,,-99.99,,2013-04-16 03:22:00,
2013-04-15 23:33:00,46.0,33.0,30.36,WSW,238,0.0,8.0,59,-99.99,,,-99.99,,2013-04-16 03:33:00,
2013-04-15 23:43:00,46.0,33.0,30.36,WSW,238,0.0,8.0,59,-99.99,,,-99.99,,2013-04-16 03:43:00,
2013-04-15 23:53:00,46.0,33.0,30.36,WSW,238,0.0,8.0,59,-99.99,,,-99.99,,2013-04-16 03:53:00,